| time (UTC) | temp F | wind direction | speed MPH | gust MPH | rain 1hr in | rain 24hr in | rain mn in | humidity % | barometer mb |
| 20260509123818 | 44 | 328 | 0.0 | 1.0 | 0.00 | 0.00 | 0.00 | 91 | 1027.7 |
| 20260509123319 | 44 | 289 | 0.0 | 0.0 | 0.00 | 0.00 | 0.00 | 92 | 1027.6 |
| 20260509122841 | 44 | 289 | 0.0 | 0.0 | 0.00 | 0.00 | 0.00 | 92 | 1027.6 |
| 20260509122325 | 44 | 289 | 0.0 | 0.0 | 0.00 | 0.00 | 0.00 | 92 | 1027.6 |
| 20260509121823 | 44 | 290 | 0.0 | 0.0 | 0.00 | 0.00 | 0.00 | 92 | 1027.8 |
| 20260509121334 | 43 | 290 | 0.0 | 0.0 | 0.00 | 0.00 | 0.00 | 92 | 1027.7 |
| 20260509120812 | 43 | 290 | 0.0 | 1.0 | 0.00 | 0.00 | 0.00 | 92 | 1027.8 |
| 20260509120318 | 42 | 290 | 0.0 | 1.0 | 0.00 | 0.00 | 0.00 | 91 | 1027.7 |
| 20260509115823 | 42 | 330 | 0.0 | 0.0 | 0.00 | 0.00 | 0.00 | 90 | 1027.8 |
| 20260509115320 | 42 | 330 | 0.0 | 0.0 | 0.00 | 0.00 | 0.00 | 90 | 1027.8 |
| 20260509114825 | 42 | 330 | 0.0 | 0.0 | 0.00 | 0.00 | 0.00 | 90 | 1027.8 |
| 20260509114327 | 41 | 330 | 0.0 | 0.0 | 0.00 | 0.00 | 0.00 | 90 | 1027.8 |
| 20260509113812 | 41 | 330 | 0.0 | 0.0 | 0.00 | 0.00 | 0.00 | 89 | 1027.8 |
| 20260509113336 | 42 | 330 | 0.0 | 1.0 | 0.00 | 0.00 | 0.00 | 87 | 1027.8 |
| 20260509112820 | 44 | 331 | 0.0 | 1.0 | 0.00 | 0.00 | 0.00 | 89 | 1027.8 |
| 20260509112318 | 44 | 180 | 0.0 | 0.0 | 0.00 | 0.00 | 0.00 | 91 | 1027.7 |
| 20260509111819 | 44 | 180 | 0.0 | 0.0 | 0.00 | 0.00 | 0.00 | 91 | 1027.6 |
| 20260509111321 | 43 | 180 | 0.0 | 0.0 | 0.00 | 0.00 | 0.00 | 90 | 1027.7 |
| 20260509110827 | 43 | 180 | 0.0 | 0.0 | 0.00 | 0.00 | 0.00 | 89 | 1027.7 |
| 20260509110332 | 43 | 180 | 0.0 | 0.0 | 0.00 | 0.00 | 0.00 | 89 | 1027.8 |
| 20260509105835 | 43 | 180 | 0.0 | 0.0 | 0.00 | 0.00 | 0.00 | 89 | 1027.7 |
| 20260509105312 | 43 | 180 | 0.0 | 0.0 | 0.00 | 0.00 | 0.00 | 89 | 1027.8 |
| 20260509104817 | 44 | 180 | 0.0 | 0.0 | 0.00 | 0.00 | 0.00 | 88 | 1027.8 |
| 20260509104342 | 44 | 180 | 0.0 | 0.0 | 0.00 | 0.00 | 0.00 | 88 | 1027.8 |
| 20260509103825 | 44 | 180 | 0.0 | 0.0 | 0.00 | 0.00 | 0.00 | 88 | 1027.7 |
| 20260509103327 | 44 | 180 | 0.0 | 0.0 | 0.00 | 0.00 | 0.00 | 87 | 1027.7 |
| 20260509102811 | 44 | 180 | 0.0 | 0.0 | 0.00 | 0.00 | 0.00 | 87 | 1027.7 |
| 20260509102318 | 45 | 180 | 0.0 | 0.0 | 0.00 | 0.00 | 0.00 | 87 | 1027.6 |
| 20260509101814 | 46 | 180 | 0.0 | 0.0 | 0.00 | 0.00 | 0.00 | 87 | 1027.5 |
| 20260509101319 | 46 | 180 | 0.0 | 0.0 | 0.00 | 0.00 | 0.00 | 89 | 1027.7 |
| 20260509100824 | 46 | 180 | 0.0 | 0.0 | 0.00 | 0.00 | 0.00 | 88 | 1027.6 |
| 20260509100324 | 46 | 180 | 0.0 | 0.0 | 0.00 | 0.00 | 0.00 | 88 | 1027.6 |
| 20260509095825 | 46 | 180 | 0.0 | 0.0 | 0.00 | 0.00 | 0.00 | 88 | 1027.7 |
| 20260509095329 | 47 | 180 | 0.0 | 0.0 | 0.00 | 0.00 | 0.00 | 87 | 1027.6 |
| 20260509094848 | 47 | 180 | 0.0 | 0.0 | 0.00 | 0.00 | 0.00 | 87 | 1027.6 |
| 20260509094337 | 47 | 180 | 0.0 | 1.0 | 0.00 | 0.00 | 0.00 | 87 | 1027.7 |
| 20260509093814 | 47 | 180 | 0.0 | 1.0 | 0.00 | 0.00 | 0.00 | 87 | 1027.7 |
| 20260509093318 | 48 | 180 | 0.0 | 0.0 | 0.00 | 0.00 | 0.00 | 87 | 1027.5 |
| 20260509092842 | 48 | 180 | 0.0 | 0.0 | 0.00 | 0.00 | 0.00 | 88 | 1027.5 |
| 20260509092326 | 48 | 180 | 0.0 | 0.0 | 0.00 | 0.00 | 0.00 | 88 | 1027.4 |
| 20260509091823 | 48 | 180 | 0.0 | 1.0 | 0.00 | 0.00 | 0.00 | 87 | 1027.4 |
| 20260509091328 | 49 | 180 | 0.0 | 0.0 | 0.00 | 0.00 | 0.00 | 87 | 1027.4 |
| 20260509090812 | 49 | 180 | 0.0 | 1.0 | 0.00 | 0.00 | 0.00 | 87 | 1027.3 |
| 20260509090336 | 49 | 180 | 0.0 | 1.0 | 0.00 | 0.00 | 0.00 | 86 | 1027.3 |
| 20260509085819 | 49 | 176 | 0.0 | 0.0 | 0.00 | 0.00 | 0.00 | 85 | 1027.3 |
| 20260509085338 | 49 | 176 | 0.0 | 0.0 | 0.00 | 0.00 | 0.00 | 85 | 1027.2 |
| 20260509084817 | 49 | 176 | 0.0 | 0.0 | 0.00 | 0.00 | 0.00 | 84 | 1027.2 |
| 20260509084321 | 50 | 176 | 0.0 | 0.0 | 0.00 | 0.00 | 0.00 | 84 | 1027.1 |
| 20260509083825 | 50 | 176 | 0.0 | 0.0 | 0.00 | 0.00 | 0.00 | 83 | 1027.1 |
| 20260509083329 | 50 | 176 | 0.0 | 0.0 | 0.00 | 0.00 | 0.00 | 83 | 1027.0 |
| 20260509082811 | 51 | 176 | 0.0 | 0.0 | 0.00 | 0.00 | 0.00 | 83 | 1026.9 |
| 20260509082336 | 51 | 176 | 0.0 | 2.0 | 0.00 | 0.00 | 0.00 | 82 | 1026.9 |
| 20260509081813 | 52 | 176 | 1.0 | 2.0 | 0.00 | 0.00 | 0.00 | 81 | 1026.7 |
| 20260509081341 | 52 | 176 | 1.0 | 2.0 | 0.00 | 0.00 | 0.00 | 79 | 1026.6 |
| 20260509080825 | 52 | 176 | 0.0 | 0.0 | 0.00 | 0.00 | 0.00 | 78 | 1026.5 |
| 20260509080330 | 53 | 176 | 0.0 | 0.0 | 0.00 | 0.00 | 0.00 | 77 | 1026.6 |
| 20260509075813 | 54 | 176 | 0.0 | 1.0 | 0.00 | 0.00 | 0.00 | 76 | 1026.5 |
| 20260509075337 | 55 | 176 | 0.0 | 1.0 | 0.00 | 0.00 | 0.00 | 76 | 1026.5 |
| 20260509074815 | 56 | 176 | 0.0 | 1.0 | 0.00 | 0.00 | 0.00 | 78 | 1026.4 |
| 20260509074319 | 56 | 176 | 0.0 | 1.0 | 0.00 | 0.00 | 0.00 | 77 | 1026.3 |
| 20260509073824 | 56 | 185 | 0.0 | 0.0 | 0.00 | 0.00 | 0.00 | 76 | 1026.3 |
| 20260509073325 | 57 | 185 | 0.0 | 0.0 | 0.00 | 0.00 | 0.00 | 75 | 1026.1 |
| 20260509072827 | 57 | 185 | 0.0 | 0.0 | 0.00 | 0.00 | 0.00 | 75 | 1026.1 |
| 20260509072332 | 58 | 185 | 0.0 | 1.0 | 0.00 | 0.00 | 0.00 | 75 | 1026.0 |
| 20260509071832 | 58 | 185 | 0.0 | 2.0 | 0.00 | 0.00 | 0.00 | 75 | 1025.9 |
| 20260509071315 | 58 | 185 | 1.0 | 2.0 | 0.00 | 0.00 | 0.00 | 75 | 1025.8 |
| 20260509070816 | 59 | 185 | 1.0 | 2.0 | 0.00 | 0.00 | 0.00 | 75 | 1025.9 |
| 20260509070321 | 59 | 180 | 2.0 | 3.0 | 0.00 | 0.00 | 0.00 | 75 | 1025.8 |
| 20260509065825 | 60 | 173 | 2.0 | 3.0 | 0.00 | 0.00 | 0.00 | 75 | 1025.8 |
| 20260509065329 | 60 | 171 | 2.0 | 3.0 | 0.00 | 0.00 | 0.00 | 74 | 1025.7 |
| 20260509064827 | 60 | 167 | 3.0 | 5.0 | 0.00 | 0.00 | 0.00 | 73 | 1025.7 |
| 20260509064311 | 60 | 173 | 3.0 | 5.0 | 0.00 | 0.00 | 0.00 | 73 | 1025.8 |
| 20260509063817 | 61 | 170 | 3.0 | 5.0 | 0.00 | 0.00 | 0.00 | 72 | 1025.7 |
| 20260509063322 | 61 | 167 | 3.0 | 5.0 | 0.00 | 0.00 | 0.00 | 71 | 1025.8 |
| 20260509062846 | 61 | 169 | 4.0 | 6.0 | 0.00 | 0.00 | 0.00 | 71 | 1025.7 |
| 20260509062330 | 61 | 172 | 4.0 | 6.0 | 0.00 | 0.00 | 0.00 | 71 | 1025.7 |
| 20260509061845 | 61 | 185 | 5.0 | 6.0 | 0.00 | 0.00 | 0.00 | 69 | 1025.7 |
| 20260509061357 | 61 | 180 | 4.0 | 8.0 | 0.00 | 0.00 | 0.00 | 69 | 1025.7 |
| 20260509060812 | 62 | 157 | 5.0 | 8.0 | 0.00 | 0.00 | 0.00 | 68 | 1025.6 |
| 20260509060338 | 62 | 175 | 4.0 | 9.0 | 0.00 | 0.00 | 0.00 | 68 | 1025.6 |
| 20260509055817 | 62 | 162 | 5.0 | 8.0 | 0.00 | 0.00 | 0.00 | 68 | 1025.6 |
| 20260509055315 | 62 | 169 | 4.0 | 8.0 | 0.00 | 0.00 | 0.00 | 68 | 1025.6 |
| 20260509054820 | 62 | 180 | 5.0 | 8.0 | 0.00 | 0.00 | 0.00 | 68 | 1025.5 |
| 20260509054325 | 62 | 151 | 5.0 | 9.0 | 0.00 | 0.00 | 0.00 | 69 | 1025.5 |
| 20260509053830 | 62 | 159 | 6.0 | 9.0 | 0.00 | 0.00 | 0.00 | 69 | 1025.6 |
| 20260509053315 | 62 | 180 | 6.0 | 9.0 | 0.00 | 0.00 | 0.00 | 69 | 1025.4 |
| 20260509052837 | 62 | 171 | 5.0 | 9.0 | 0.00 | 0.00 | 0.00 | 69 | 1025.5 |
| 20260509052321 | 62 | 171 | 6.0 | 10.0 | 0.00 | 0.00 | 0.00 | 69 | 1025.5 |
| 20260509051819 | 62 | 165 | 5.0 | 9.0 | 0.00 | 0.00 | 0.00 | 70 | 1025.4 |
| 20260509051324 | 63 | 190 | 4.0 | 8.0 | 0.00 | 0.00 | 0.00 | 69 | 1025.3 |
| 20260509050828 | 63 | 167 | 4.0 | 8.0 | 0.00 | 0.00 | 0.00 | 68 | 1025.4 |
| 20260509050350 | 63 | 170 | 4.0 | 9.0 | 0.00 | 0.00 | 0.00 | 70 | 1025.4 |
| 20260509045812 | 63 | 170 | 5.0 | 9.0 | 0.00 | 0.00 | 0.00 | 69 | 1025.3 |
| 20260509045336 | 63 | 171 | 3.0 | 8.0 | 0.00 | 0.00 | 0.00 | 70 | 1025.3 |
| 20260509044814 | 63 | 150 | 0.0 | 6.0 | 0.00 | 0.00 | 0.00 | 69 | 1025.3 |
| 20260509044319 | 63 | 180 | 3.0 | 10.0 | 0.00 | 0.00 | 0.00 | 69 | 1025.4 |
| 20260509043824 | 63 | 194 | 5.0 | 10.0 | 0.00 | 0.00 | 0.00 | 70 | 1025.4 |
| 20260509043348 | 63 | 203 | 3.0 | 9.0 | 0.00 | 0.00 | 0.00 | 70 | 1025.4 |
| 20260509042828 | 63 | 190 | 4.0 | 9.0 | 0.00 | 0.00 | 0.00 | 69 | 1025.4 |
| 20260509042314 | 63 | 229 | 5.0 | 9.0 | 0.00 | 0.00 | 0.00 | 69 | 1025.4 |
| 20260509041857 | 63 | 210 | 3.0 | 9.0 | 0.00 | 0.00 | 0.00 | 70 | 1025.4 |
| 20260509041312 | 63 | 190 | 3.0 | 6.0 | 0.00 | 0.00 | 0.00 | 70 | 1025.5 |
| 20260509040818 | 63 | 173 | 3.0 | 8.0 | 0.00 | 0.00 | 0.00 | 70 | 1025.5 |
| 20260509040343 | 63 | 173 | 5.0 | 8.0 | 0.00 | 0.00 | 0.00 | 71 | 1025.5 |
| 20260509035844 | 63 | 209 | 3.0 | 8.0 | 0.00 | 0.00 | 0.00 | 70 | 1025.5 |
| 20260509035329 | 63 | 140 | 4.0 | 9.0 | 0.00 | 0.00 | 0.00 | 69 | 1025.5 |
| 20260509034823 | 64 | 173 | 5.0 | 9.0 | 0.00 | 0.00 | 0.00 | 69 | 1025.5 |
| 20260509034331 | 64 | 238 | 2.0 | 8.0 | 0.00 | 0.00 | 0.00 | 67 | 1025.6 |
| 20260509033826 | 63 | 229 | 2.0 | 6.0 | 0.00 | 0.00 | 0.00 | 66 | 1025.5 |
| 20260509033329 | 63 | 254 | 4.0 | 6.0 | 0.00 | 0.00 | 0.00 | 67 | 1025.6 |
| 20260509032812 | 63 | 278 | 3.0 | 6.0 | 0.00 | 0.00 | 0.00 | 65 | 1025.6 |
| 20260509032313 | 63 | 160 | 2.0 | 5.0 | 0.00 | 0.00 | 0.00 | 66 | 1025.6 |
| 20260509031818 | 63 | 190 | 2.0 | 5.0 | 0.00 | 0.00 | 0.00 | 66 | 1025.6 |
| 20260509031338 | 62 | 290 | 0.0 | 4.0 | 0.00 | 0.00 | 0.00 | 65 | 1025.6 |
| 20260509030823 | 62 | 233 | 0.0 | 4.0 | 0.00 | 0.00 | 0.00 | 64 | 1025.7 |
| 20260509030319 | 62 | 194 | 2.0 | 6.0 | 0.00 | 0.00 | 0.00 | 65 | 1025.7 |
| 20260509025829 | 62 | 190 | 3.0 | 7.0 | 0.00 | 0.00 | 0.00 | 65 | 1025.7 |
| 20260509025325 | 62 | 164 | 3.0 | 5.0 | 0.00 | 0.00 | 0.00 | 65 | 1025.8 |
| 20260509024827 | 62 | 229 | 1.0 | 4.0 | 0.00 | 0.00 | 0.00 | 67 | 1025.8 |
| 20260509024329 | 62 | 154 | 1.0 | 6.0 | 0.00 | 0.00 | 0.00 | 67 | 1025.9 |
| 20260509023813 | 62 | 194 | 1.0 | 6.0 | 0.00 | 0.00 | 0.00 | 67 | 1025.9 |
| 20260509023334 | 62 | 180 | 2.0 | 5.0 | 0.00 | 0.00 | 0.00 | 67 | 1026.1 |
| 20260509022813 | 62 | 207 | 2.0 | 5.0 | 0.00 | 0.00 | 0.00 | 67 | 1026.1 |
| 20260509022336 | 62 | 225 | 1.0 | 3.0 | 0.00 | 0.00 | 0.00 | 68 | 1026.3 |
| 20260509021828 | 62 | 213 | 0.0 | 3.0 | 0.00 | 0.00 | 0.00 | 68 | 1026.4 |
| 20260509021336 | 62 | 256 | 1.0 | 4.0 | 0.00 | 0.00 | 0.00 | 70 | 1026.5 |
| 20260509020829 | 61 | 277 | 1.0 | 4.0 | 0.00 | 0.00 | 0.00 | 70 | 1026.6 |
| 20260509020310 | 61 | 206 | 2.0 | 4.0 | 0.00 | 0.00 | 0.00 | 70 | 1026.6 |
| 20260509015810 | 61 | 231 | 1.0 | 5.0 | 0.00 | 0.00 | 0.00 | 71 | 1026.7 |
| 20260509015333 | 61 | 321 | 2.0 | 5.0 | 0.00 | 0.00 | 0.00 | 71 | 1026.7 |
| 20260509014834 | 61 | 281 | 0.0 | 4.0 | 0.00 | 0.00 | 0.00 | 72 | 1026.7 |
| 20260509014311 | 60 | 340 | 1.0 | 4.0 | 0.00 | 0.00 | 0.00 | 73 | 1026.7 |
| 20260509013831 | 60 | 250 | 1.0 | 4.0 | 0.00 | 0.00 | 0.00 | 72 | 1026.7 |
| 20260509013321 | 60 | 123 | 1.0 | 7.0 | 0.00 | 0.00 | 0.00 | 72 | 1026.7 |
| 20260509012831 | 60 | 307 | 2.0 | 7.0 | 0.00 | 0.00 | 0.00 | 73 | 1026.8 |
| 20260509012326 | 60 | 346 | 2.0 | 6.0 | 0.00 | 0.00 | 0.00 | 75 | 1026.8 |
| 20260509011828 | 59 | 344 | 2.0 | 5.0 | 0.00 | 0.00 | 0.00 | 75 | 1026.9 |
| 20260509011350 | 59 | 284 | 1.0 | 6.0 | 0.00 | 0.00 | 0.00 | 74 | 1027.0 |
| 20260509010831 | 59 | 343 | 3.0 | 6.0 | 0.00 | 0.00 | 0.00 | 75 | 1027.1 |
| 20260509010332 | 59 | 280 | 2.0 | 4.0 | 0.00 | 0.00 | 0.00 | 75 | 1027.1 |
| 20260509005829 | 58 | 9 | 1.0 | 4.0 | 0.00 | 0.00 | 0.00 | 75 | 1027.2 |
| 20260509005330 | 58 | 352 | 1.0 | 6.0 | 0.00 | 0.00 | 0.00 | 76 | 1027.2 |
| 20260509004853 | 58 | 37 | 3.0 | 6.0 | 0.00 | 0.00 | 0.00 | 76 | 1027.3 |
| 20260509004316 | 58 | 25 | 0.0 | 3.0 | 0.00 | 0.00 | 0.00 | 77 | 1027.4 |
| 20260509003858 | 57 | 352 | 1.0 | 6.0 | 0.00 | 0.00 | 0.00 | 78 | 1027.4 |
| 20260509003330 | 57 | 320 | 2.0 | 6.0 | 0.00 | 0.00 | 0.00 | 79 | 1027.3 |
| 20260509002831 | 56 | 29 | 1.0 | 3.0 | 0.00 | 0.00 | 0.00 | 83 | 1027.3 |
| 20260509002329 | 56 | 259 | 0.0 | 3.0 | 0.00 | 0.00 | 0.00 | 83 | 1027.2 |
| 20260509001829 | 55 | 286 | 0.0 | 3.0 | 0.00 | 0.00 | 0.00 | 84 | 1027.3 |
| 20260509001328 | 55 | 356 | 0.0 | 4.0 | 0.00 | 0.00 | 0.00 | 86 | 1027.3 |
| 20260509000829 | 55 | 321 | 2.0 | 4.0 | 0.00 | 0.00 | 0.00 | 87 | 1027.3 |
| 20260509000350 | 54 | 351 | 2.0 | 4.0 | 0.00 | 0.00 | 0.00 | 90 | 1027.3 |
| 20260508235830 | 53 | 17 | 2.0 | 3.0 | 0.00 | 0.00 | 0.00 | 91 | 1027.3 |
| 20260508235331 | 53 | 354 | 0.0 | 3.0 | 0.00 | 0.00 | 0.00 | 92 | 1027.3 |
| 20260508234823 | 52 | 301 | 1.0 | 2.0 | 0.00 | 0.00 | 0.00 | 92 | 1027.2 |
| 20260508234329 | 52 | 210 | 1.0 | 2.0 | 0.00 | 0.00 | 0.00 | 92 | 1027.2 |
| 20260508233822 | 51 | 128 | 0.0 | 2.0 | 0.00 | 0.00 | 0.00 | 93 | 1027.2 |
| 20260508233324 | 51 | 180 | 0.0 | 3.0 | 0.00 | 0.00 | 0.00 | 93 | 1027.1 |
| 20260508232827 | 51 | 185 | 1.0 | 4.0 | 0.00 | 0.00 | 0.00 | 93 | 1027.2 |
| 20260508232324 | 50 | 169 | 1.0 | 3.0 | 0.00 | 0.00 | 0.00 | 93 | 1027.2 |
| 20260508231827 | 50 | 158 | 0.0 | 1.0 | 0.00 | 0.00 | 0.00 | 94 | 1027.2 |
| 20260508231330 | 50 | 173 | 0.0 | 1.0 | 0.00 | 0.00 | 0.00 | 95 | 1027.2 |
| 20260508230831 | 49 | 161 | 0.0 | 1.0 | 0.00 | 0.00 | 0.00 | 95 | 1027.3 |
| 20260508230331 | 49 | 161 | 0.0 | 1.0 | 0.00 | 0.00 | 0.00 | 95 | 1027.2 |
| 20260508225813 | 48 | 161 | 0.0 | 0.0 | 0.00 | 0.00 | 0.00 | 95 | 1027.3 |
| 20260508225354 | 48 | 161 | 0.0 | 1.0 | 0.00 | 0.00 | 0.00 | 95 | 1027.2 |
| 20260508224825 | 47 | 161 | 0.0 | 1.0 | 0.00 | 0.00 | 0.00 | 95 | 1027.1 |
| 20260508224327 | 47 | 161 | 0.0 | 1.0 | 0.00 | 0.00 | 0.00 | 95 | 1027.1 |
| 20260508223811 | 46 | 28 | 0.0 | 1.0 | 0.00 | 0.00 | 0.00 | 95 | 1027.0 |
| 20260508223334 | 46 | 28 | 0.0 | 1.0 | 0.00 | 0.00 | 0.00 | 95 | 1027.0 |
| 20260508222814 | 45 | 355 | 0.0 | 0.0 | 0.00 | 0.00 | 0.00 | 95 | 1026.8 |
| 20260508222311 | 45 | 354 | 0.0 | 0.0 | 0.00 | 0.00 | 0.00 | 96 | 1026.8 |
| 20260508221815 | 44 | 352 | 0.0 | 0.0 | 0.00 | 0.00 | 0.00 | 96 | 1026.8 |
| 20260508221315 | 43 | 350 | 0.0 | 0.0 | 0.00 | 0.00 | 0.00 | 96 | 1026.7 |
| 20260508220818 | 42 | 350 | 0.0 | 2.0 | 0.00 | 0.00 | 0.00 | 96 | 1026.7 |
| 20260508220323 | 41 | 350 | 0.0 | 2.0 | 0.00 | 0.00 | 0.00 | 95 | 1026.6 |
| 20260508215848 | 40 | 342 | 0.0 | 1.0 | 0.00 | 0.00 | 0.00 | 95 | 1026.5 |
| 20260508215330 | 39 | 342 | 0.0 | 1.0 | 0.00 | 0.00 | 0.00 | 94 | 1026.5 |
| 20260508214834 | 38 | 342 | 0.0 | 0.0 | 0.00 | 0.00 | 0.00 | 94 | 1026.5 |
| 20260508214332 | 38 | 342 | 0.0 | 0.0 | 0.00 | 0.00 | 0.00 | 94 | 1026.5 |
| 20260508213814 | 37 | 342 | 0.0 | 0.0 | 0.00 | 0.00 | 0.00 | 93 | 1026.5 |
| 20260508213319 | 36 | 342 | 0.0 | 0.0 | 0.00 | 0.00 | 0.00 | 93 | 1026.5 |
| 20260508212842 | 36 | 342 | 0.0 | 1.0 | 0.00 | 0.00 | 0.00 | 93 | 1026.3 |
| 20260508212325 | 36 | 342 | 0.0 | 1.0 | 0.00 | 0.00 | 0.00 | 92 | 1026.2 |
| 20260508211827 | 36 | 342 | 0.0 | 0.0 | 0.00 | 0.00 | 0.00 | 92 | 1026.2 |
| 20260508211349 | 36 | 342 | 0.0 | 0.0 | 0.00 | 0.00 | 0.00 | 92 | 1026.2 |
| 20260508210844 | 36 | 342 | 0.0 | 0.0 | 0.00 | 0.00 | 0.00 | 91 | 1026.1 |
| 20260508210321 | 37 | 342 | 0.0 | 0.0 | 0.00 | 0.00 | 0.00 | 91 | 1026.1 |
| 20260508205821 | 37 | 342 | 0.0 | 0.0 | 0.00 | 0.00 | 0.00 | 91 | 1025.9 |
| 20260508205346 | 38 | 342 | 0.0 | 0.0 | 0.00 | 0.00 | 0.00 | 92 | 1026.0 |
| 20260508204828 | 38 | 342 | 0.0 | 0.0 | 0.00 | 0.00 | 0.00 | 92 | 1025.9 |
| 20260508204333 | 38 | 335 | 0.0 | 0.0 | 0.00 | 0.00 | 0.00 | 93 | 1025.8 |
| 20260508203834 | 37 | 335 | 0.0 | 0.0 | 0.00 | 0.00 | 0.00 | 93 | 1025.8 |
| 20260508203338 | 37 | 335 | 0.0 | 0.0 | 0.00 | 0.00 | 0.00 | 93 | 1025.8 |
| 20260508202837 | 36 | 335 | 0.0 | 0.0 | 0.00 | 0.00 | 0.00 | 92 | 1025.8 |
| 20260508202312 | 36 | 335 | 0.0 | 0.0 | 0.00 | 0.00 | 0.00 | 92 | 1025.7 |
| 20260508201815 | 37 | 335 | 0.0 | 0.0 | 0.00 | 0.00 | 0.00 | 91 | 1025.7 |
| 20260508201317 | 37 | 335 | 0.0 | 0.0 | 0.00 | 0.00 | 0.00 | 92 | 1025.6 |
| 20260508200818 | 37 | 335 | 0.0 | 0.0 | 0.00 | 0.00 | 0.00 | 91 | 1025.5 |
| 20260508200321 | 37 | 335 | 0.0 | 0.0 | 0.00 | 0.00 | 0.00 | 91 | 1025.6 |
| 20260508195819 | 38 | 335 | 0.0 | 0.0 | 0.00 | 0.00 | 0.00 | 91 | 1025.5 |
| 20260508195336 | 38 | 335 | 0.0 | 0.0 | 0.00 | 0.00 | 0.00 | 92 | 1025.4 |
| 20260508194833 | 38 | 336 | 0.0 | 0.0 | 0.00 | 0.00 | 0.00 | 92 | 1025.5 |
| 20260508194314 | 39 | 336 | 0.0 | 0.0 | 0.00 | 0.00 | 0.00 | 92 | 1025.5 |
| 20260508193818 | 39 | 336 | 0.0 | 0.0 | 0.00 | 0.00 | 0.00 | 92 | 1025.5 |
| 20260508193324 | 39 | 335 | 0.0 | 0.0 | 0.00 | 0.00 | 0.00 | 92 | 1025.3 |
| 20260508192826 | 39 | 336 | 0.0 | 0.0 | 0.00 | 0.00 | 0.00 | 92 | 1025.4 |
| 20260508192348 | 39 | 335 | 0.0 | 0.0 | 0.00 | 0.00 | 0.00 | 92 | 1025.2 |
| 20260508191853 | 38 | 342 | 0.0 | 0.0 | 0.00 | 0.00 | 0.00 | 92 | 1025.2 |
| 20260508191336 | 38 | 342 | 0.0 | 0.0 | 0.00 | 0.00 | 0.00 | 91 | 1025.0 |
| 20260508190813 | 39 | 342 | 0.0 | 0.0 | 0.00 | 0.00 | 0.00 | 91 | 1025.2 |
| 20260508190339 | 39 | 342 | 0.0 | 0.0 | 0.00 | 0.00 | 0.00 | 91 | 1025.1 |
| 20260508185818 | 39 | 342 | 0.0 | 0.0 | 0.00 | 0.00 | 0.00 | 91 | 1025.1 |
| 20260508185323 | 39 | 342 | 0.0 | 0.0 | 0.00 | 0.00 | 0.00 | 92 | 1025.2 |
| 20260508184848 | 39 | 342 | 0.0 | 0.0 | 0.00 | 0.00 | 0.00 | 92 | 1025.1 |
| 20260508184325 | 39 | 342 | 0.0 | 0.0 | 0.00 | 0.00 | 0.00 | 92 | 1025.2 |
| 20260508183823 | 39 | 342 | 0.0 | 0.0 | 0.00 | 0.00 | 0.00 | 92 | 1025.1 |
| 20260508183327 | 38 | 342 | 0.0 | 0.0 | 0.00 | 0.00 | 0.00 | 91 | 1025.2 |
| 20260508182825 | 39 | 342 | 0.0 | 0.0 | 0.00 | 0.00 | 0.00 | 91 | 1025.2 |
| 20260508182348 | 39 | 342 | 0.0 | 1.0 | 0.00 | 0.00 | 0.00 | 91 | 1025.0 |
| 20260508181829 | 40 | 335 | 0.0 | 2.0 | 0.00 | 0.00 | 0.00 | 91 | 1025.0 |
| 20260508181350 | 40 | 348 | 1.0 | 2.0 | 0.00 | 0.00 | 0.00 | 92 | 1025.0 |
| 20260508180834 | 40 | 57 | 0.0 | 0.0 | 0.00 | 0.00 | 0.00 | 92 | 1024.9 |
| 20260508180311 | 40 | 59 | 0.0 | 0.0 | 0.00 | 0.00 | 0.00 | 91 | 1025.0 |
| 20260508175814 | 40 | 59 | 0.0 | 0.0 | 0.00 | 0.00 | 0.00 | 92 | 1024.9 |
| 20260508175319 | 40 | 58 | 0.0 | 0.0 | 0.00 | 0.00 | 0.00 | 91 | 1024.9 |
| 20260508174823 | 40 | 58 | 0.0 | 1.0 | 0.00 | 0.00 | 0.00 | 91 | 1025.0 |
| 20260508174326 | 40 | 57 | 0.0 | 1.0 | 0.00 | 0.00 | 0.00 | 92 | 1024.9 |
| 20260508173832 | 40 | 48 | 0.0 | 0.0 | 0.00 | 0.00 | 0.00 | 91 | 1024.7 |
| 20260508173325 | 40 | 48 | 0.0 | 0.0 | 0.00 | 0.00 | 0.00 | 91 | 1024.8 |
| 20260508172824 | 40 | 48 | 0.0 | 0.0 | 0.00 | 0.00 | 0.00 | 91 | 1024.7 |
| 20260508172323 | 40 | 48 | 0.0 | 1.0 | 0.00 | 0.00 | 0.00 | 91 | 1024.8 |
| 20260508171846 | 40 | 5 | 0.0 | 0.0 | 0.00 | 0.00 | 0.00 | 91 | 1024.7 |
| 20260508171326 | 40 | 5 | 0.0 | 0.0 | 0.00 | 0.00 | 0.00 | 91 | 1024.9 |
| 20260508170830 | 40 | 5 | 0.0 | 0.0 | 0.00 | 0.00 | 0.00 | 90 | 1024.8 |
| 20260508170317 | 40 | 5 | 0.0 | 3.0 | 0.00 | 0.00 | 0.00 | 90 | 1024.9 |
| 20260508165816 | 40 | 5 | 1.0 | 3.0 | 0.00 | 0.00 | 0.00 | 91 | 1024.9 |
| 20260508165322 | 40 | 343 | 0.0 | 0.0 | 0.00 | 0.00 | 0.00 | 91 | 1024.8 |
| 20260508164816 | 40 | 313 | 0.0 | 0.0 | 0.00 | 0.00 | 0.00 | 90 | 1024.9 |
| 20260508164327 | 40 | 313 | 0.0 | 0.0 | 0.00 | 0.00 | 0.00 | 89 | 1024.9 |
| 20260508163820 | 40 | 313 | 0.0 | 0.0 | 0.00 | 0.00 | 0.00 | 90 | 1024.9 |
| 20260508163323 | 40 | 313 | 0.0 | 0.0 | 0.00 | 0.00 | 0.00 | 91 | 1024.9 |
| 20260508162826 | 40 | 313 | 0.0 | 0.0 | 0.00 | 0.00 | 0.00 | 90 | 1025.0 |
| 20260508162345 | 40 | 313 | 0.0 | 0.0 | 0.00 | 0.00 | 0.00 | 90 | 1024.9 |
| 20260508161841 | 40 | 313 | 0.0 | 0.0 | 0.00 | 0.00 | 0.00 | 89 | 1025.0 |
| 20260508161348 | 40 | 314 | 0.0 | 0.0 | 0.00 | 0.00 | 0.00 | 89 | 1025.2 |
| 20260508160822 | 41 | 314 | 0.0 | 0.0 | 0.00 | 0.00 | 0.00 | 89 | 1025.0 |
| 20260508160323 | 41 | 315 | 0.0 | 1.0 | 0.00 | 0.00 | 0.00 | 89 | 1025.0 |
| 20260508155847 | 41 | 295 | 0.0 | 0.0 | 0.00 | 0.00 | 0.00 | 89 | 1025.1 |
| 20260508155328 | 41 | 292 | 0.0 | 0.0 | 0.00 | 0.00 | 0.00 | 88 | 1025.0 |
| 20260508154829 | 42 | 292 | 0.0 | 0.0 | 0.00 | 0.00 | 0.00 | 87 | 1025.1 |
| 20260508154349 | 43 | 207 | 0.0 | 0.0 | 0.00 | 0.00 | 0.00 | 90 | 1025.0 |
| 20260508153853 | 43 | 196 | 0.0 | 2.0 | 0.00 | 0.00 | 0.00 | 90 | 1025.1 |
| 20260508153336 | 44 | 198 | 0.0 | 3.0 | 0.00 | 0.00 | 0.00 | 90 | 1025.1 |
| 20260508152837 | 44 | 197 | 1.0 | 3.0 | 0.00 | 0.00 | 0.00 | 90 | 1025.2 |
| 20260508152312 | 44 | 196 | 1.0 | 3.0 | 0.00 | 0.00 | 0.00 | 90 | 1025.1 |
| 20260508151816 | 44 | 196 | 2.0 | 3.0 | 0.00 | 0.00 | 0.00 | 90 | 1025.0 |
| 20260508151315 | 44 | 180 | 1.0 | 3.0 | 0.00 | 0.00 | 0.00 | 89 | 1025.0 |
| 20260508150818 | 44 | 173 | 2.0 | 3.0 | 0.00 | 0.00 | 0.00 | 89 | 1024.9 |
| 20260508150319 | 44 | 170 | 0.0 | 0.0 | 0.00 | 0.00 | 0.00 | 89 | 1025.0 |
| 20260508145819 | 44 | 161 | 0.0 | 0.0 | 0.00 | 0.00 | 0.00 | 89 | 1024.9 |
| 20260508145337 | 44 | 43 | 0.0 | 0.0 | 0.00 | 0.00 | 0.00 | 89 | 1024.9 |
| 20260508144820 | 44 | 42 | 0.0 | 0.0 | 0.00 | 0.00 | 0.00 | 89 | 1025.0 |
| 20260508144343 | 44 | 42 | 0.0 | 1.0 | 0.00 | 0.00 | 0.00 | 88 | 1025.0 |
| 20260508143825 | 44 | 42 | 0.0 | 1.0 | 0.00 | 0.00 | 0.00 | 87 | 1025.0 |
| 20260508143327 | 45 | 337 | 0.0 | 3.0 | 0.00 | 0.00 | 0.00 | 88 | 1024.9 |
| 20260508142826 | 45 | 337 | 1.0 | 3.0 | 0.00 | 0.00 | 0.00 | 86 | 1025.0 |
| 20260508142327 | 46 | 335 | 0.0 | 1.0 | 0.00 | 0.00 | 0.00 | 86 | 1025.0 |
| 20260508141821 | 46 | 322 | 0.0 | 1.0 | 0.00 | 0.00 | 0.00 | 87 | 1025.0 |
| 20260508141329 | 46 | 321 | 0.0 | 1.0 | 0.00 | 0.00 | 0.00 | 86 | 1025.0 |
| 20260508140839 | 47 | 326 | 0.0 | 1.0 | 0.00 | 0.00 | 0.00 | 86 | 1025.0 |
| 20260508140319 | 47 | 333 | 0.0 | 1.0 | 0.00 | 0.00 | 0.00 | 88 | 1025.0 |
| 20260508135819 | 47 | 351 | 0.0 | 0.0 | 0.00 | 0.00 | 0.00 | 88 | 1025.0 |
| 20260508135324 | 47 | 351 | 0.0 | 0.0 | 0.00 | 0.00 | 0.00 | 88 | 1025.1 |
| 20260508134829 | 47 | 351 | 0.0 | 0.0 | 0.00 | 0.00 | 0.00 | 88 | 1025.1 |
| 20260508134333 | 47 | 351 | 0.0 | 1.0 | 0.00 | 0.00 | 0.00 | 88 | 1025.2 |
| 20260508133858 | 48 | 351 | 0.0 | 1.0 | 0.00 | 0.00 | 0.00 | 89 | 1025.2 |
| 20260508133314 | 47 | 352 | 0.0 | 1.0 | 0.00 | 0.00 | 0.00 | 89 | 1025.3 |
| 20260508132817 | 47 | 354 | 0.0 | 0.0 | 0.00 | 0.00 | 0.00 | 90 | 1025.1 |
| 20260508132322 | 47 | 354 | 0.0 | 3.0 | 0.00 | 0.00 | 0.00 | 90 | 1025.2 |
| 20260508131847 | 47 | 354 | 0.0 | 4.0 | 0.00 | 0.00 | 0.00 | 91 | 1025.1 |
| 20260508131312 | 46 | 41 | 1.0 | 4.0 | 0.00 | 0.00 | 0.00 | 90 | 1025.1 |
| 20260508130857 | 46 | 52 | 1.0 | 4.0 | 0.00 | 0.00 | 0.00 | 91 | 1025.2 |
| 20260508130313 | 45 | 190 | 0.0 | 4.0 | 0.00 | 0.00 | 0.00 | 90 | 1025.3 |
| 20260508125817 | 45 | 283 | 0.0 | 2.0 | 0.00 | 0.00 | 0.00 | 88 | 1025.2 |
| 20260508125318 | 45 | 355 | 1.0 | 3.0 | 0.00 | 0.00 | 0.00 | 88 | 1025.0 |
| 20260508124823 | 45 | 340 | 0.0 | 6.0 | 0.00 | 0.00 | 0.00 | 89 | 1024.9 |
| 20260508124326 | 45 | 318 | 2.0 | 6.0 | 0.00 | 0.00 | 0.00 | 89 | 1025.2 |